QPF
0.00 0.00 0.00 0.00 0.00 0.00 0.00 0.00 0.00 0.00 0.00 0.00 0.00 0.00 0.00 0.00 0.00 0.00 0.00 0.00 0.00 0.00 0.00 0.00 0.00 0.00 0.00 0.00 0.00 0.00 0.00 0.00 0.00 0.00 0.00 0.00 0.00 0.00 0.00 0.00 0.00 0.00 0.00
0.00 0.00 0.00 0.00 0.00 0.00 0.00 0.00 0.00 0.00 0.00 0.00 0.00 0.00 0.00 0.00 0.00 0.00 0.00 0.00 0.00 0.00 0.00 0.00 0.00 0.00 0.00 0.00 0.00 0.00 0.00 0.00 0.00 0.00 0.00 0.00 0.00 0.00 0.00 0.00 0.00 0.00 0.00
0.00 0.00 0.00 0.00 0.00 0.00 0.00 0.00 0.00 0.00 0.00 0.00 0.00 0.00 0.00 0.00 0.00 0.00 0.00 0.00 0.00 0.00 0.00 0.00 0.00 0.00 0.00 0.00 0.00 0.00 0.01 0.01 0.01 0.01 0.01 0.01 0.01 0.01 0.01 0.01 0.01 0.01 0.01
0.00 0.00 0.00 0.00 0.00 0.00 0.00 0.00 0.00 0.00 0.00 0.00 0.00 0.00 0.00 0.00 0.00 0.00 0.00 0.00 0.00 0.00 0.00 0.00 0.00 0.00 0.00 0.00 0.00 0.00 0.01 0.01 0.01 0.01 0.01 0.01 0.01 0.01 0.01 0.01 0.01 0.01 0.01
0.00 0.00 0.00 0.00 0.00 0.00 0.00 0.00 0.00 0.00 0.00 0.00 0.00 0.00 0.00 0.00 0.00 0.00 0.00 0.00 0.00 0.00 0.00 0.00 0.00 0.00 0.00 0.00 0.00 0.00 0.00 0.00 0.01 0.01 0.01 0.02 0.02 0.02 0.02 0.02 0.02 0.02 0.02
0.00 0.00 0.00 0.00 0.00 0.00 0.00 0.00 0.00 0.00 0.00 0.00 0.00 0.00 0.00 0.00 0.00 0.00 0.00 0.00 0.00 0.00 0.00 0.00 0.00 0.00 0.00 0.00 0.00 0.00 0.00 0.00 0.00 0.01 0.01 0.02 0.02 0.02 0.03 0.03 0.03 0.03 0.03
0.00 0.00 0.00 0.00 0.00 0.00 0.00 0.00 0.00 0.00 0.00 0.00 0.00 0.00 0.00 0.00 0.00 0.00 0.00 0.00 0.00 0.00 0.00 0.00 0.00 0.00 0.00 0.00 0.00 0.00 0.00 0.00 0.00 0.00 0.01 0.01 0.02 0.02 0.03 0.04 0.04 0.04 0.05
0.00 0.00 0.00 0.00 0.00 0.00 0.00 0.00 0.00 0.00 0.00 0.00 0.00 0.00 0.00 0.00 0.00 0.00 0.00 0.00 0.00 0.00 0.00 0.00 0.00 0.00 0.00 0.00 0.00 0.00 0.00 0.00 0.00 0.00 0.00 0.01 0.01 0.02 0.03 0.04 0.05 0.05 0.06
0.00 0.00 0.00 0.00 0.00 0.00 0.00 0.00 0.00 0.00 0.00 0.00 0.00 0.00 0.00 0.00 0.00 0.00 0.00 0.00 0.00 0.00 0.00 0.00 0.00 0.00 0.00 0.00 0.00 0.00 0.00 0.00 0.00 0.00 0.00 0.00 0.01 0.01 0.02 0.03 0.04 0.05 0.06
0.00 0.00 0.00 0.00 0.00 0.00 0.00 0.00 0.00 0.00 0.00 0.00 0.00 0.00 0.00 0.00 0.00 0.00 0.00 0.00 0.00 0.00 0.00 0.00 0.00 0.00 0.00 0.00 0.00 0.00 0.00 0.00 0.00 0.00 0.00 0.00 0.00 0.01 0.02 0.02 0.03 0.05 0.06
0.00 0.00 0.00 0.00 0.00 0.00 0.00 0.00 0.00 0.00 0.00 0.00 0.00 0.00 0.00 0.00 0.00 0.00 0.00 0.00 0.00 0.00 0.00 0.00 0.00 0.00 0.00 0.00 0.00 0.00 0.00 0.00 0.00 0.00 0.00 0.00 0.01 0.01 0.02 0.02 0.03 0.04 0.05
0.00 0.00 0.00 0.00 0.00 0.00 0.00 0.00 0.00 0.00 0.00 0.00 0.00 0.00 0.00 0.00 0.00 0.00 0.00 0.00 0.00 0.00 0.00 0.00 0.00 0.00 0.00 0.00 0.00 0.00 0.00 0.00 0.00 0.00 0.00 0.00 0.00 0.00 0.01 0.01 0.02 0.02 0.04
0.00 0.00 0.00 0.00 0.00 0.00 0.00 0.00 0.00 0.00 0.00 0.00 0.00 0.00 0.00 0.00 0.00 0.00 0.00 0.00 0.00 0.00 0.00 0.00 0.00 0.00 0.00 0.00 0.00 0.00 0.00 0.00 0.00 0.00 0.00 0.00 0.00 0.01 0.01 0.01 0.01 0.01 0.02
0.00 0.00 0.00 0.00 0.00 0.00 0.00 0.00 0.00 0.00 0.00 0.00 0.00 0.00 0.00 0.00 0.00 0.00 0.00 0.00 0.00 0.00 0.00 0.00 0.00 0.00 0.00 0.00 0.00 0.00 0.00 0.00 0.00 0.00 0.00 0.00 0.00 0.00 0.01 0.01 0.01 0.01 0.01
0.00 0.00 0.00 0.00 0.00 0.00 0.00 0.00 0.00 0.00 0.00 0.00 0.00 0.00 0.00 0.00 0.00 0.00 0.00 0.00 0.00 0.00 0.00 0.00 0.00 0.00 0.00 0.00 0.00 0.00 0.00 0.00 0.00 0.00 0.00 0.00 0.00 0.01 0.01 0.01 0.01 0.01 0.01
0.00 0.00 0.00 0.00 0.00 0.00 0.00 0.00 0.00 0.00 0.00 0.00 0.00 0.00 0.00 0.00 0.00 0.00 0.00 0.00 0.00 0.00 0.00 0.00 0.00 0.00 0.00 0.00 0.00 0.00 0.00 0.00 0.00 0.00 0.00 0.01 0.01 0.01 0.01 0.01 0.01 0.01 0.02
0.00 0.00 0.00 0.00 0.00 0.00 0.00 0.00 0.00 0.00 0.00 0.00 0.00 0.00 0.00 0.00 0.00 0.00 0.00 0.00 0.00 0.00 0.00 0.00 0.00 0.00 0.00 0.00 0.00 0.00 0.00 0.00 0.00 0.00 0.00 0.00 0.01 0.01 0.01 0.01 0.02 0.02 0.02
0.00 0.00 0.00 0.00 0.00 0.00 0.00 0.00 0.00 0.00 0.00 0.00 0.00 0.00 0.00 0.00 0.00 0.00 0.00 0.00 0.00 0.00 0.00 0.00 0.00 0.00 0.00 0.00 0.00 0.00 0.00 0.00 0.00 0.00 0.00 0.01 0.01 0.01 0.02 0.02 0.02 0.02 0.03
0.00 0.00 0.00 0.00 0.00 0.00 0.00 0.00 0.00 0.00 0.00 0.00 0.00 0.00 0.00 0.00 0.00 0.00 0.00 0.00 0.00 0.00 0.00 0.00 0.00 0.00 0.00 0.00 0.00 0.00 0.00 0.00 0.00 0.00 0.00 0.00 0.01 0.01 0.01 0.02 0.02 0.02 0.02
0.00 0.00 0.00 0.00 0.00 0.00 0.00 0.00 0.00 0.00 0.00 0.00 0.00 0.00 0.00 0.00 0.00 0.00 0.00 0.00 0.00 0.01 0.01 0.01 0.01 0.01 0.01 0.01 0.00 0.01 0.00 0.00 0.00 0.00 0.00 0.00 0.00 0.01 0.01 0.01 0.02 0.02 0.02
0.00 0.00 0.00 0.00 0.00 0.00 0.00 0.00 0.00 0.00 0.00 0.00 0.00 0.00 0.00 0.00 0.00 0.01 0.01 0.01 0.01 0.02 0.02 0.03 0.03 0.03 0.02 0.02 0.02 0.01 0.01 0.01 0.00 0.00 0.00 0.00 0.00 0.00 0.00 0.00 0.01 0.01 0.01
0.00 0.00 0.00 0.00 0.00 0.00 0.00 0.00 0.00 0.00 0.00 0.00 0.00 0.00 0.00 0.00 0.00 0.01 0.01 0.02 0.02 0.02 0.03 0.03 0.03 0.03 0.02 0.02 0.02 0.02 0.02 0.03 0.02 0.01 0.00 0.00 0.00 0.00 0.00 0.00 0.00 0.01 0.01
0.00 0.00 0.00 0.00 0.00 0.00 0.00 0.00 0.00 0.00 0.00 0.00 0.00 0.00 0.00 0.00 0.00 0.00 0.00 0.01 0.01 0.01 0.02 0.03 0.03 0.02 0.01 0.01 0.01 0.02 0.02 0.03 0.02 0.01 0.01 0.02 0.01 0.00 0.00 0.00 0.01 0.01 0.01
0.00 0.00 0.00 0.00 0.00 0.00 0.00 0.00 0.00 0.00 0.00 0.00 0.00 0.00 0.00 0.00 0.00 0.01 0.01 0.01 0.01 0.01 0.01 0.02 0.02 0.01 0.01 0.01 0.02 0.03 0.04 0.05 0.04 0.02 0.01 0.02 0.01 0.00 0.00 0.00 0.00 0.01 0.01
0.00 0.00 0.00 0.00 0.00 0.00 0.00 0.00 0.00 0.00 0.00 0.00 0.00 0.00 0.00 0.00 0.01 0.02 0.02 0.01 0.01 0.01 0.01 0.02 0.03 0.03 0.04 0.05 0.06 0.08 0.11 0.13 0.11 0.04 0.01 0.01 0.01 0.00 0.00 0.00 0.00 0.00 0.00
0.00 0.00 0.00 0.00 0.00 0.00 0.00 0.00 0.00 0.00 0.00 0.00 0.00 0.00 0.01 0.01 0.02 0.03 0.02 0.02 0.02 0.01 0.01 0.01 0.01 0.01 0.02 0.02 0.03 0.04 0.05 0.09 0.10 0.07 0.02 0.01 0.01 0.01 0.01 0.00 0.00 0.00 0.00
MSLP
1022.10 1022.29 1022.41 1022.48 1022.53 1022.60 1022.69 1022.81 1022.94 1023.06 1023.15 1023.19 1023.20 1023.16 1023.10 1023.04 1022.98 1022.92 1022.84 1022.74 1022.59 1022.39 1022.14 1021.86 1021.57 1021.29 1021.05 1020.87 1020.73 1020.63 1020.55 1020.48 1020.41 1020.33 1020.26 1020.19 1020.16 1020.15 1020.18 1020.23 1020.29 1020.35 1020.38
1021.76 1021.94 1022.05 1022.13 1022.20 1022.28 1022.39 1022.52 1022.66 1022.79 1022.90 1022.95 1022.96 1022.93 1022.86 1022.78 1022.69 1022.60 1022.49 1022.37 1022.21 1022.00 1021.76 1021.48 1021.19 1020.91 1020.64 1020.42 1020.23 1020.07 1019.94 1019.84 1019.74 1019.65 1019.59 1019.54 1019.53 1019.55 1019.59 1019.64 1019.69 1019.74 1019.76
1021.42 1021.59 1021.72 1021.82 1021.92 1022.02 1022.16 1022.30 1022.46 1022.60 1022.71 1022.78 1022.78 1022.74 1022.66 1022.55 1022.43 1022.29 1022.14 1021.98 1021.80 1021.58 1021.34 1021.08 1020.81 1020.53 1020.27 1020.02 1019.80 1019.60 1019.42 1019.26 1019.12 1019.01 1018.93 1018.88 1018.87 1018.88 1018.91 1018.95 1018.99 1019.01 1019.02
1021.13 1021.31 1021.46 1021.59 1021.73 1021.87 1022.03 1022.19 1022.36 1022.50 1022.61 1022.67 1022.67 1022.61 1022.50 1022.36 1022.19 1022.00 1021.80 1021.60 1021.38 1021.16 1020.92 1020.68 1020.44 1020.19 1019.94 1019.70 1019.46 1019.22 1019.00 1018.78 1018.59 1018.43 1018.31 1018.22 1018.18 1018.16 1018.17 1018.18 1018.18 1018.17 1018.15
1020.94 1021.13 1021.31 1021.48 1021.65 1021.83 1022.01 1022.18 1022.34 1022.48 1022.57 1022.61 1022.59 1022.51 1022.37 1022.19 1021.98 1021.74 1021.49 1021.24 1020.99 1020.76 1020.53 1020.31 1020.10 1019.89 1019.68 1019.45 1019.21 1018.95 1018.68 1018.41 1018.15 1017.92 1017.73 1017.58 1017.48 1017.41 1017.36 1017.33 1017.29 1017.24 1017.19
1020.88 1021.07 1021.28 1021.48 1021.68 1021.88 1022.07 1022.24 1022.38 1022.49 1022.56 1022.58 1022.54 1022.44 1022.28 1022.06 1021.81 1021.53 1021.23 1020.94 1020.66 1020.41 1020.19 1019.99 1019.82 1019.64 1019.46 1019.26 1019.02 1018.74 1018.43 1018.10 1017.77 1017.46 1017.19 1016.96 1016.78 1016.65 1016.54 1016.45 1016.36 1016.27 1016.18
1020.91 1021.11 1021.33 1021.56 1021.78 1021.98 1022.16 1022.31 1022.43 1022.51 1022.55 1022.54 1022.49 1022.37 1022.20 1021.98 1021.70 1021.39 1021.06 1020.73 1020.42 1020.14 1019.91 1019.73 1019.57 1019.42 1019.27 1019.08 1018.84 1018.55 1018.20 1017.82 1017.42 1017.04 1016.68 1016.37 1016.12 1015.91 1015.74 1015.60 1015.46 1015.33 1015.21
1021.02 1021.22 1021.44 1021.67 1021.89 1022.08 1022.25 1022.37 1022.45 1022.50 1022.51 1022.49 1022.43 1022.32 1022.16 1021.94 1021.66 1021.33 1020.98 1020.62 1020.28 1019.97 1019.72 1019.52 1019.35 1019.21 1019.06 1018.87 1018.63 1018.32 1017.95 1017.52 1017.07 1016.61 1016.19 1015.81 1015.49 1015.23 1015.01 1014.82 1014.65 1014.48 1014.32
1021.18 1021.35 1021.56 1021.78 1021.99 1022.16 1022.29 1022.38 1022.43 1022.44 1022.44 1022.41 1022.36 1022.27 1022.14 1021.94 1021.68 1021.36 1021.00 1020.61 1020.23 1019.88 1019.58 1019.33 1019.14 1018.96 1018.79 1018.59 1018.33 1018.00 1017.60 1017.14 1016.66 1016.17 1015.70 1015.28 1014.92 1014.62 1014.36 1014.15 1013.95 1013.76 1013.58
1021.35 1021.50 1021.68 1021.88 1022.06 1022.21 1022.30 1022.35 1022.36 1022.36 1022.34 1022.32 1022.28 1022.23 1022.13 1021.97 1021.74 1021.43 1021.06 1020.65 1020.23 1019.83 1019.46 1019.15 1018.89 1018.66 1018.44 1018.20 1017.91 1017.56 1017.14 1016.68 1016.18 1015.67 1015.20 1014.77 1014.39 1014.08 1013.81 1013.59 1013.38 1013.18 1012.98
1021.52 1021.65 1021.81 1021.98 1022.13 1022.23 1022.29 1022.30 1022.28 1022.24 1022.22 1022.20 1022.20 1022.17 1022.12 1022.00 1021.79 1021.50 1021.12 1020.69 1020.22 1019.76 1019.32 1018.93 1018.59 1018.29 1018.00 1017.71 1017.38 1017.01 1016.58 1016.12 1015.63 1015.14 1014.68 1014.26 1013.89 1013.59 1013.33 1013.10 1012.89 1012.69 1012.48
1021.69 1021.80 1021.94 1022.08 1022.19 1022.25 1022.27 1022.24 1022.18 1022.12 1022.09 1022.08 1022.08 1022.08 1022.05 1021.96 1021.77 1021.49 1021.11 1020.65 1020.15 1019.63 1019.12 1018.65 1018.23 1017.84 1017.49 1017.14 1016.77 1016.38 1015.95 1015.49 1015.03 1014.56 1014.13 1013.74 1013.40 1013.11 1012.86 1012.64 1012.44 1012.24 1012.03
1021.88 1021.98 1022.10 1022.20 1022.27 1022.29 1022.25 1022.18 1022.08 1022.00 1021.94 1021.92 1021.92 1021.92 1021.90 1021.81 1021.64 1021.36 1020.97 1020.49 1019.96 1019.40 1018.83 1018.30 1017.81 1017.36 1016.94 1016.53 1016.13 1015.72 1015.28 1014.84 1014.40 1013.97 1013.57 1013.21 1012.90 1012.62 1012.38 1012.16 1011.96 1011.75 1011.54
1022.07 1022.16 1022.26 1022.33 1022.35 1022.32 1022.23 1022.11 1021.97 1021.85 1021.76 1021.71 1021.68 1021.67 1021.63 1021.53 1021.35 1021.06 1020.67 1020.19 1019.64 1019.05 1018.46 1017.89 1017.35 1016.85 1016.38 1015.94 1015.50 1015.07 1014.64 1014.21 1013.79 1013.38 1013.01 1012.67 1012.36 1012.09 1011.84 1011.61 1011.40 1011.18 1010.97
1022.25 1022.33 1022.40 1022.43 1022.40 1022.32 1022.18 1022.01 1021.83 1021.66 1021.53 1021.44 1021.37 1021.32 1021.24 1021.12 1020.91 1020.61 1020.21 1019.73 1019.18 1018.60 1018.01 1017.43 1016.88 1016.35 1015.86 1015.39 1014.93 1014.48 1014.04 1013.62 1013.20 1012.81 1012.44 1012.11 1011.79 1011.50 1011.23 1010.98 1010.74 1010.51 1010.29
1022.39 1022.45 1022.48 1022.47 1022.39 1022.25 1022.06 1021.84 1021.62 1021.41 1021.24 1021.10 1020.98 1020.88 1020.76 1020.59 1020.35 1020.03 1019.63 1019.16 1018.63 1018.07 1017.51 1016.94 1016.40 1015.88 1015.38 1014.89 1014.42 1013.96 1013.51 1013.07 1012.66 1012.26 1011.89 1011.53 1011.20 1010.88 1010.57 1010.27 1010.00 1009.74 1009.51
1022.43 1022.47 1022.46 1022.39 1022.26 1022.07 1021.84 1021.59 1021.33 1021.09 1020.88 1020.70 1020.53 1020.38 1020.20 1019.98 1019.71 1019.37 1018.96 1018.51 1018.01 1017.49 1016.96 1016.43 1015.92 1015.41 1014.91 1014.42 1013.94 1013.46 1013.00 1012.56 1012.13 1011.72 1011.33 1010.96 1010.59 1010.23 1009.87 1009.53 1009.21 1008.92 1008.68
1022.36 1022.35 1022.29 1022.17 1022.00 1021.77 1021.51 1021.24 1020.96 1020.71 1020.47 1020.26 1020.06 1019.85 1019.62 1019.36 1019.04 1018.68 1018.27 1017.82 1017.35 1016.86 1016.37 1015.88 1015.39 1014.90 1014.41 1013.92 1013.43 1012.95 1012.48 1012.02 1011.59 1011.18 1010.78 1010.38 1009.99 1009.59 1009.20 1008.81 1008.45 1008.12 1007.85
1022.14 1022.09 1021.98 1021.81 1021.60 1021.35 1021.08 1020.80 1020.53 1020.27 1020.03 1019.80 1019.57 1019.32 1019.04 1018.73 1018.38 1017.99 1017.56 1017.12 1016.66 1016.19 1015.73 1015.26 1014.79 1014.32 1013.83 1013.34 1012.84 1012.35 1011.88 1011.43 1011.00 1010.59 1010.20 1009.81 1009.41 1008.99 1008.57 1008.15 1007.75 1007.39 1007.09
1021.80 1021.70 1021.54 1021.35 1021.11 1020.85 1020.58 1020.31 1020.05 1019.80 1019.56 1019.32 1019.07 1018.79 1018.48 1018.12 1017.72 1017.29 1016.84 1016.38 1015.92 1015.46 1015.00 1014.54 1014.08 1013.60 1013.11 1012.61 1012.12 1011.63 1011.17 1010.73 1010.33 1009.96 1009.59 1009.23 1008.85 1008.44 1008.01 1007.57 1007.14 1006.75 1006.41
1021.35 1021.21 1021.03 1020.82 1020.57 1020.31 1020.05 1019.79 1019.55 1019.31 1019.07 1018.83 1018.56 1018.25 1017.89 1017.49 1017.05 1016.58 1016.09 1015.60 1015.11 1014.63 1014.16 1013.69 1013.21 1012.72 1012.23 1011.72 1011.23 1010.76 1010.32 1009.93 1009.57 1009.25 1008.95 1008.64 1008.30 1007.93 1007.52 1007.08 1006.64 1006.22 1005.85
1020.85 1020.69 1020.50 1020.27 1020.02 1019.76 1019.51 1019.26 1019.02 1018.78 1018.54 1018.28 1017.99 1017.64 1017.25 1016.80 1016.31 1015.79 1015.26 1014.73 1014.21 1013.70 1013.20 1012.70 1012.20 1011.70 1011.19 1010.69 1010.21 1009.76 1009.36 1009.02 1008.73 1008.48 1008.26 1008.02 1007.76 1007.45 1007.08 1006.67 1006.23 1005.79 1005.39
1020.34 1020.18 1019.98 1019.75 1019.49 1019.23 1018.97 1018.71 1018.46 1018.21 1017.95 1017.66 1017.32 1016.94 1016.50 1016.01 1015.48 1014.91 1014.34 1013.77 1013.22 1012.67 1012.14 1011.62 1011.10 1010.57 1010.06 1009.56 1009.09 1008.68 1008.33 1008.05 1007.84 1007.68 1007.54 1007.40 1007.22 1006.98 1006.67 1006.29 1005.87 1005.43 1005.00
1019.84 1019.69 1019.49 1019.25 1018.99 1018.71 1018.42 1018.14 1017.85 1017.56 1017.25 1016.92 1016.54 1016.11 1015.63 1015.10 1014.53 1013.94 1013.34 1012.74 1012.16 1011.59 1011.04 1010.49 1009.96 1009.43 1008.91 1008.42 1007.98 1007.60 1007.30 1007.08 1006.94 1006.86 1006.81 1006.76 1006.67 1006.51 1006.26 1005.94 1005.54 1005.11 1004.68
1019.38 1019.23 1019.02 1018.77 1018.49 1018.17 1017.84 1017.51 1017.16 1016.82 1016.45 1016.07 1015.64 1015.17 1014.65 1014.10 1013.51 1012.90 1012.29 1011.68 1011.09 1010.52 1009.96 1009.41 1008.87 1008.34 1007.83 1007.36 1006.94 1006.60 1006.34 1006.17 1006.09 1006.08 1006.11 1006.13 1006.11 1006.02 1005.85 1005.58 1005.23 1004.83 1004.41
1018.92 1018.76 1018.54 1018.27 1017.95 1017.59 1017.20 1016.80 1016.40 1015.99 1015.57 1015.13 1014.66 1014.16 1013.63 1013.06 1012.47 1011.87 1011.26 1010.67 1010.09 1009.52 1008.97 1008.43 1007.91 1007.39 1006.90 1006.45 1006.05 1005.74 1005.51 1005.38 1005.34 1005.37 1005.45 1005.52 1005.57 1005.54 1005.43 1005.22 1004.93 1004.57 1004.19
Thickness
5646 5643 5640 5637 5634 5632 5629 5627 5625 5623 5621 5620 5619 5618 5617 5617 5616 5616 5616 5616 5616 5616 5617 5618 5619 5620 5621 5622 5623 5623 5624 5624 5624 5624 5625 5624 5624 5624 5624 5623 5623 5623 5623
5643 5639 5636 5633 5630 5628 5625 5623 5621 5619 5617 5615 5614 5613 5613 5612 5611 5611 5611 5610 5610 5610 5610 5611 5612 5613 5614 5615 5616 5617 5618 5618 5619 5619 5619 5619 5619 5619 5618 5618 5618 5617 5617
5640 5636 5633 5629 5627 5624 5621 5618 5616 5614 5612 5610 5609 5609 5608 5607 5607 5606 5606 5605 5605 5604 5604 5604 5605 5606 5607 5608 5609 5609 5610 5611 5612 5612 5613 5613 5613 5613 5613 5612 5612 5612 5611
5636 5632 5628 5625 5622 5619 5616 5613 5611 5608 5606 5605 5604 5603 5603 5602 5601 5601 5600 5600 5600 5599 5598 5598 5598 5599 5599 5600 5601 5602 5602 5603 5603 5604 5605 5606 5606 5606 5606 5607 5606 5606 5605
5630 5627 5623 5620 5617 5613 5610 5607 5604 5602 5600 5598 5598 5597 5597 5596 5596 5596 5595 5595 5594 5594 5593 5592 5591 5591 5591 5591 5592 5592 5593 5594 5595 5595 5596 5597 5598 5599 5600 5600 5600 5600 5600
5624 5621 5617 5614 5610 5607 5603 5600 5597 5595 5593 5591 5591 5591 5591 5591 5591 5590 5590 5589 5588 5587 5586 5585 5584 5583 5582 5582 5583 5583 5584 5585 5585 5586 5587 5588 5589 5591 5592 5593 5593 5594 5594
5617 5614 5610 5606 5603 5599 5596 5593 5590 5587 5585 5583 5581 5582 5584 5585 5584 5584 5583 5581 5580 5579 5578 5577 5575 5574 5573 5572 5572 5573 5573 5574 5575 5576 5577 5578 5579 5581 5582 5584 5585 5586 5587
5610 5606 5602 5599 5595 5592 5588 5585 5582 5578 5576 5573 5570 5569 5570 5573 5574 5576 5574 5572 5571 5569 5568 5566 5565 5564 5563 5562 5561 5560 5561 5562 5564 5565 5566 5567 5568 5569 5571 5573 5575 5576 5578
5602 5598 5594 5591 5587 5584 5580 5577 5574 5570 5566 5564 5560 5556 5555 5558 5559 5566 5565 5564 5561 5558 5557 5555 5554 5553 5551 5551 5550 5549 5549 5549 5551 5552 5553 5555 5556 5557 5559 5560 5562 5564 5567
5593 5589 5586 5582 5578 5575 5571 5568 5565 5561 5558 5554 5550 5547 5545 5544 5543 5552 5553 5552 5551 5549 5546 5545 5543 5541 5539 5538 5538 5537 5537 5538 5538 5539 5540 5541 5542 5543 5545 5547 5548 5550 5553
5583 5580 5576 5573 5569 5565 5562 5559 5556 5552 5548 5545 5541 5538 5535 5531 5528 5529 5539 5542 5539 5537 5536 5534 5532 5529 5527 5525 5524 5524 5524 5524 5525 5525 5526 5526 5527 5528 5529 5530 5532 5533 5536
5572 5569 5566 5563 5559 5556 5552 5549 5546 5543 5539 5536 5532 5528 5524 5521 5518 5515 5519 5525 5527 5528 5525 5523 5520 5517 5514 5511 5509 5508 5507 5507 5507 5507 5508 5508 5509 5510 5511 5512 5513 5514 5516
5561 5559 5556 5552 5549 5546 5543 5540 5536 5533 5529 5526 5522 5519 5516 5512 5509 5506 5505 5509 5511 5514 5512 5511 5507 5503 5499 5496 5493 5490 5489 5488 5487 5487 5487 5487 5488 5489 5490 5491 5492 5493 5495
5552 5549 5546 5542 5539 5536 5533 5530 5526 5523 5520 5516 5512 5509 5505 5502 5498 5493 5489 5488 5493 5499 5496 5494 5491 5486 5482 5478 5475 5472 5470 5467 5466 5465 5465 5465 5465 5465 5467 5468 5470 5471 5473
5542 5539 5536 5532 5529 5526 5523 5519 5516 5512 5509 5505 5501 5498 5494 5491 5486 5481 5476 5469 5465 5473 5483 5479 5472 5469 5463 5460 5456 5453 5450 5447 5445 5444 5443 5442 5442 5443 5444 5445 5446 5448 5450
5532 5529 5525 5522 5518 5515 5512 5508 5505 5502 5498 5495 5490 5486 5483 5478 5474 5468 5462 5457 5450 5448 5457 5462 5453 5448 5443 5440 5436 5433 5430 5427 5425 5423 5422 5422 5422 5422 5423 5424 5425 5427 5428
5521 5518 5514 5511 5507 5504 5501 5497 5494 5490 5487 5484 5479 5475 5471 5466 5461 5456 5449 5443 5437 5431 5436 5448 5437 5430 5424 5419 5416 5412 5409 5407 5406 5404 5403 5403 5403 5404 5405 5405 5407 5408 5410
5511 5507 5504 5500 5497 5494 5490 5486 5483 5480 5475 5472 5468 5463 5458 5453 5448 5442 5435 5430 5424 5418 5415 5423 5424 5415 5407 5401 5397 5394 5391 5390 5388 5387 5386 5387 5387 5388 5389 5390 5391 5392 5394
5500 5496 5492 5489 5486 5483 5479 5476 5472 5468 5464 5460 5455 5450 5445 5439 5434 5428 5422 5416 5411 5406 5401 5401 5405 5399 5392 5385 5380 5378 5376 5374 5372 5372 5372 5373 5373 5374 5375 5377 5378 5380 5382
5489 5485 5481 5478 5475 5471 5468 5464 5460 5456 5452 5448 5442 5437 5431 5425 5419 5414 5408 5403 5397 5392 5387 5383 5385 5383 5377 5371 5364 5362 5363 5360 5359 5359 5359 5360 5361 5362 5364 5366 5368 5370 5371
5478 5474 5470 5467 5463 5459 5456 5453 5449 5446 5441 5436 5431 5424 5418 5412 5407 5401 5396 5390 5383 5378 5372 5368 5367 5366 5363 5356 5351 5348 5348 5350 5350 5348 5349 5350 5350 5353 5354 5355 5357 5359 5361
5467 5463 5459 5455 5452 5449 5446 5443 5440 5435 5430 5423 5418 5412 5405 5398 5393 5388 5382 5376 5368 5361 5356 5352 5351 5349 5348 5343 5339 5337 5336 5338 5342 5342 5340 5343 5342 5344 5345 5346 5348 5351 5353
5456 5452 5448 5444 5441 5437 5434 5432 5428 5424 5417 5410 5403 5397 5391 5385 5378 5370 5365 5360 5353 5346 5341 5337 5337 5336 5334 5332 5329 5329 5328 5330 5334 5334 5332 5338 5337 5338 5339 5341 5343 5345 5347
5446 5442 5438 5434 5430 5426 5423 5420 5416 5411 5404 5396 5388 5381 5375 5369 5360 5354 5350 5346 5340 5335 5329 5325 5324 5326 5325 5324 5322 5322 5324 5326 5329 5329 5326 5331 5333 5334 5336 5336 5338 5339 5341
5436 5432 5428 5424 5419 5415 5411 5406 5402 5396 5390 5383 5375 5366 5358 5352 5347 5341 5336 5333 5331 5327 5323 5321 5321 5322 5322 5321 5320 5319 5319 5320 5325 5327 5324 5324 5328 5329 5331 5332 5333 5335 5336
5427 5423 5418 5413 5407 5402 5397 5392 5386 5380 5375 5369 5362 5353 5344 5337 5333 5328 5322 5320 5320 5319 5316 5316 5316 5315 5315 5314 5314 5313 5312 5313 5317 5321 5321 5319 5321 5320 5324 5327 5327 5327 5328